Time,TemperatureF,DewpointF,PressureIn,WindDirection,WindDirectionDegrees,WindSpeedMPH,WindSpeedGustMPH,Humidity,HourlyPrecipIn,Conditions,Clouds,dailyrainin,SoftwareType,DateUTC
2013-08-19 00:11:00,-999.0,-99.9,30.03,North,-999,-999.0,-999.0,-999,-99.99,,,0.00,weatherlink.com 1.10,2013-08-19 04:11:00,
2013-08-19 00:26:00,-999.0,-99.9,30.02,North,-999,-999.0,-999.0,-999,-99.99,,,0.00,weatherlink.com 1.10,2013-08-19 04:26:00,
2013-08-19 00:41:00,-999.0,-99.9,30.02,North,-999,-999.0,-999.0,-999,-99.99,,,0.00,weatherlink.com 1.10,2013-08-19 04:41:00,
2013-08-19 01:11:00,-999.0,-99.9,30.00,North,-999,-999.0,-999.0,-999,-99.99,,,0.00,weatherlink.com 1.10,2013-08-19 05:11:00,
2013-08-19 01:26:00,-999.0,-99.9,30.00,North,-999,-999.0,-999.0,-999,-99.99,,,0.00,weatherlink.com 1.10,2013-08-19 05:26:00,
2013-08-19 01:41:00,-999.0,-99.9,30.00,North,-999,-999.0,-999.0,-999,-99.99,,,0.00,weatherlink.com 1.10,2013-08-19 05:41:00,
2013-08-19 01:56:00,-999.0,-99.9,30.00,North,-999,-999.0,-999.0,-999,-99.99,,,0.00,weatherlink.com 1.10,2013-08-19 05:56:00,
2013-08-19 02:11:00,-999.0,-99.9,29.99,North,-999,-999.0,-999.0,-999,-99.99,,,0.00,weatherlink.com 1.10,2013-08-19 06:11:00,
2013-08-19 02:26:00,-999.0,-99.9,29.99,North,-999,-999.0,-999.0,-999,-99.99,,,0.00,weatherlink.com 1.10,2013-08-19 06:26:00,
2013-08-19 02:41:00,-999.0,-99.9,29.98,North,-999,-999.0,-999.0,-999,-99.99,,,0.00,weatherlink.com 1.10,2013-08-19 06:41:00,
2013-08-19 02:56:00,-999.0,-99.9,29.98,North,-999,-999.0,-999.0,-999,-99.99,,,0.00,weatherlink.com 1.10,2013-08-19 06:56:00,
2013-08-19 03:11:00,-999.0,-99.9,29.98,North,-999,-999.0,-999.0,-999,-99.99,,,0.00,weatherlink.com 1.10,2013-08-19 07:11:00,
2013-08-19 03:26:00,-999.0,-99.9,29.97,North,-999,-999.0,-999.0,-999,-99.99,,,0.00,weatherlink.com 1.10,2013-08-19 07:26:00,
2013-08-19 03:41:00,-999.0,-99.9,29.97,North,-999,-999.0,-999.0,-999,-99.99,,,0.00,weatherlink.com 1.10,2013-08-19 07:41:00,
2013-08-19 03:56:00,-999.0,-99.9,29.97,North,-999,-999.0,-999.0,-999,-99.99,,,0.00,weatherlink.com 1.10,2013-08-19 07:56:00,
2013-08-19 04:11:00,-999.0,-99.9,29.96,North,-999,-999.0,-999.0,-999,-99.99,,,0.00,weatherlink.com 1.10,2013-08-19 08:11:00,
2013-08-19 04:26:00,-999.0,-99.9,29.96,North,-999,-999.0,-999.0,-999,-99.99,,,0.00,weatherlink.com 1.10,2013-08-19 08:26:00,
2013-08-19 04:41:00,-999.0,-99.9,29.96,North,-999,-999.0,-999.0,-999,-99.99,,,0.00,weatherlink.com 1.10,2013-08-19 08:41:00,
2013-08-19 04:56:00,-999.0,-99.9,29.96,North,-999,-999.0,-999.0,-999,-99.99,,,0.00,weatherlink.com 1.10,2013-08-19 08:56:00,
2013-08-19 05:11:00,-999.0,-99.9,29.96,North,-999,-999.0,-999.0,-999,-99.99,,,0.00,weatherlink.com 1.10,2013-08-19 09:11:00,
2013-08-19 05:26:00,-999.0,-99.9,29.96,North,-999,-999.0,-999.0,-999,-99.99,,,0.00,weatherlink.com 1.10,2013-08-19 09:26:00,
2013-08-19 05:41:00,-999.0,-99.9,29.95,North,-999,-999.0,-999.0,-999,-99.99,,,0.00,weatherlink.com 1.10,2013-08-19 09:41:00,
2013-08-19 05:56:00,-999.0,-99.9,29.96,North,-999,-999.0,-999.0,-999,-99.99,,,0.00,weatherlink.com 1.10,2013-08-19 09:56:00,
2013-08-19 06:11:00,-999.0,-99.9,29.95,North,-999,-999.0,-999.0,-999,-99.99,,,0.00,weatherlink.com 1.10,2013-08-19 10:11:00,
2013-08-19 06:26:00,-999.0,-99.9,29.95,North,-999,-999.0,-999.0,-999,-99.99,,,0.00,weatherlink.com 1.10,2013-08-19 10:26:00,
2013-08-19 06:41:00,-999.0,-99.9,29.96,North,-999,-999.0,-999.0,-999,-99.99,,,0.00,weatherlink.com 1.10,2013-08-19 10:41:00,
2013-08-19 06:56:00,-999.0,-99.9,29.96,North,-999,-999.0,-999.0,-999,-99.99,,,0.00,weatherlink.com 1.10,2013-08-19 10:56:00,
2013-08-19 07:11:00,-999.0,-99.9,29.96,North,-999,-999.0,-999.0,-999,-99.99,,,0.00,weatherlink.com 1.10,2013-08-19 11:11:00,
2013-08-19 07:26:00,-999.0,-99.9,29.96,North,-999,-999.0,-999.0,-999,-99.99,,,0.00,weatherlink.com 1.10,2013-08-19 11:26:00,
2013-08-19 07:41:00,-999.0,-99.9,29.95,North,-999,-999.0,-999.0,-999,-99.99,,,0.00,weatherlink.com 1.10,2013-08-19 11:41:00,
2013-08-19 07:56:00,-999.0,-99.9,29.96,North,-999,-999.0,-999.0,-999,-99.99,,,0.00,weatherlink.com 1.10,2013-08-19 11:56:00,
2013-08-19 08:11:00,-999.0,-99.9,29.96,North,-999,-999.0,-999.0,-999,-99.99,,,0.00,weatherlink.com 1.10,2013-08-19 12:11:00,
2013-08-19 08:26:00,84.3,78.0,29.96,East,84,0.0,-999.0,81,-99.99,,,0.00,weatherlink.com 1.10,2013-08-19 12:26:00,
2013-08-19 08:41:00,85.5,78.0,29.96,ENE,72,0.0,-999.0,78,-99.99,,,0.00,weatherlink.com 1.10,2013-08-19 12:41:00,
2013-08-19 08:56:00,85.7,78.0,29.96,ESE,106,3.0,-999.0,77,-99.99,,,0.00,weatherlink.com 1.10,2013-08-19 12:56:00,
2013-08-19 09:11:00,86.7,78.0,29.96,SE,137,0.0,-999.0,74,-99.99,,,0.00,weatherlink.com 1.10,2013-08-19 13:11:00,
2013-08-19 09:26:00,87.2,78.0,29.96,ESE,102,1.0,-999.0,74,-99.99,,,0.00,weatherlink.com 1.10,2013-08-19 13:26:00,
2013-08-19 09:41:00,87.8,78.0,29.97,SE,127,1.0,-999.0,73,-99.99,,,0.00,weatherlink.com 1.10,2013-08-19 13:41:00,
2013-08-19 09:56:00,88.4,78.0,29.97,East,84,0.0,-999.0,71,-99.99,,,0.00,weatherlink.com 1.10,2013-08-19 13:56:00,
2013-08-19 10:11:00,88.8,77.0,29.97,ENE,74,4.0,-999.0,69,-99.99,,,0.00,weatherlink.com 1.10,2013-08-19 14:11:00,
2013-08-19 10:26:00,89.0,78.0,29.98,SSE,157,2.0,-999.0,70,-99.99,,,0.00,weatherlink.com 1.10,2013-08-19 14:26:00,
2013-08-19 10:41:00,89.3,78.0,29.98,East,99,2.0,-999.0,70,-99.99,,,0.00,weatherlink.com 1.10,2013-08-19 14:41:00,
2013-08-19 10:56:00,88.4,78.0,29.99,South,176,0.0,-999.0,71,-99.99,,,0.00,weatherlink.com 1.10,2013-08-19 14:56:00,
2013-08-19 11:11:00,89.7,78.0,29.99,SE,142,5.0,-999.0,68,-99.99,,,0.00,weatherlink.com 1.10,2013-08-19 15:11:00,
2013-08-19 11:26:00,89.5,77.0,29.99,WSW,248,5.0,-999.0,67,-99.99,,,0.00,weatherlink.com 1.10,2013-08-19 15:26:00,
2013-08-19 11:41:00,90.1,78.0,29.99,South,180,5.0,-999.0,67,-99.99,,,0.00,weatherlink.com 1.10,2013-08-19 15:41:00,
2013-08-19 11:56:00,90.3,78.0,29.99,SSE,165,6.0,-999.0,67,-99.99,,,0.00,weatherlink.com 1.10,2013-08-19 15:56:00,
2013-08-19 12:11:00,90.1,78.0,29.99,ENE,67,2.0,-999.0,68,-99.99,,,0.00,weatherlink.com 1.10,2013-08-19 16:11:00,
2013-08-19 12:26:00,90.1,78.0,29.98,East,81,1.0,-999.0,68,-99.99,,,0.00,weatherlink.com 1.10,2013-08-19 16:26:00,
2013-08-19 12:41:00,90.3,78.0,29.98,South,180,2.0,-999.0,68,-99.99,,,0.00,weatherlink.com 1.10,2013-08-19 16:41:00,
2013-08-19 12:56:00,90.7,78.0,29.97,ESE,105,2.0,-999.0,67,-99.99,,,0.00,weatherlink.com 1.10,2013-08-19 16:56:00,
2013-08-19 13:11:00,91.0,78.0,29.97,ENE,69,0.0,-999.0,65,-99.99,,,0.00,weatherlink.com 1.10,2013-08-19 17:11:00,
2013-08-19 13:26:00,91.2,77.0,29.97,ESE,121,0.0,-999.0,64,-99.99,,,0.00,weatherlink.com 1.10,2013-08-19 17:26:00,
2013-08-19 13:41:00,90.7,78.0,29.97,East,91,1.0,-999.0,67,-99.99,,,0.00,weatherlink.com 1.10,2013-08-19 17:41:00,
2013-08-19 13:56:00,91.2,77.0,29.97,NE,44,4.0,-999.0,64,-99.99,,,0.00,weatherlink.com 1.10,2013-08-19 17:56:00,
2013-08-19 14:11:00,90.5,78.0,29.97,East,94,2.0,-999.0,66,-99.99,,,0.00,weatherlink.com 1.10,2013-08-19 18:11:00,
2013-08-19 14:26:00,90.5,78.0,29.96,East,86,5.0,-999.0,66,-99.99,,,0.00,weatherlink.com 1.10,2013-08-19 18:26:00,
2013-08-19 14:41:00,90.7,77.0,29.96,SSE,168,1.0,-999.0,65,-99.99,,,0.00,weatherlink.com 1.10,2013-08-19 18:41:00,
2013-08-19 14:56:00,91.4,78.0,29.96,ENE,61,3.0,-999.0,65,-99.99,,,0.00,weatherlink.com 1.10,2013-08-19 18:56:00,
2013-08-19 15:11:00,91.4,77.0,29.95,SSE,154,2.0,-999.0,63,-99.99,,,0.00,weatherlink.com 1.10,2013-08-19 19:11:00,
2013-08-19 15:26:00,91.6,77.0,29.94,SE,130,3.0,-999.0,63,-99.99,,,0.00,weatherlink.com 1.10,2013-08-19 19:26:00,
2013-08-19 15:41:00,91.4,78.0,29.94,SSE,166,1.0,-999.0,65,-99.99,,,0.00,weatherlink.com 1.10,2013-08-19 19:41:00,
2013-08-19 15:56:00,91.0,78.0,29.93,ESE,106,3.0,-999.0,66,-99.99,,,0.00,weatherlink.com 1.10,2013-08-19 19:56:00,
2013-08-19 16:11:00,91.6,78.0,29.93,ENE,71,0.0,-999.0,64,-99.99,,,0.00,weatherlink.com 1.10,2013-08-19 20:11:00,
2013-08-19 16:26:00,90.3,78.0,29.93,ENE,77,0.0,-999.0,67,-99.99,,,0.00,weatherlink.com 1.10,2013-08-19 20:26:00,
2013-08-19 16:41:00,90.1,78.0,29.92,SSE,167,1.0,-999.0,67,-99.99,,,0.00,weatherlink.com 1.10,2013-08-19 20:41:00,
2013-08-19 16:56:00,90.5,78.0,29.92,SSE,159,5.0,-999.0,67,-99.99,,,0.00,weatherlink.com 1.10,2013-08-19 20:56:00,
2013-08-19 17:11:00,87.0,77.0,29.92,SSE,157,1.0,-999.0,71,-99.99,,,0.02,weatherlink.com 1.10,2013-08-19 21:11:00,
2013-08-19 17:26:00,85.9,77.0,29.93,SSE,159,2.0,-999.0,75,-99.99,,,0.02,weatherlink.com 1.10,2013-08-19 21:26:00,
2013-08-19 17:41:00,86.5,78.0,29.92,South,171,0.0,-999.0,75,-99.99,,,0.02,weatherlink.com 1.10,2013-08-19 21:41:00,
2013-08-19 17:56:00,87.4,77.0,29.92,South,169,2.0,-999.0,71,-99.99,,,0.02,weatherlink.com 1.10,2013-08-19 21:56:00,
2013-08-19 18:11:00,88.2,78.0,29.93,ENE,78,0.0,-999.0,71,-99.99,,,0.02,weatherlink.com 1.10,2013-08-19 22:11:00,
2013-08-19 18:26:00,87.8,77.0,29.92,ESE,123,0.0,-999.0,71,-99.99,,,0.02,weatherlink.com 1.10,2013-08-19 22:26:00,
2013-08-19 18:41:00,87.6,78.0,29.93,SE,130,0.0,-999.0,72,-99.99,,,0.02,weatherlink.com 1.10,2013-08-19 22:41:00,
2013-08-19 18:56:00,-999.0,-99.9,29.93,North,-999,-999.0,-999.0,-999,-99.99,,,0.02,weatherlink.com 1.10,2013-08-19 22:56:00,
2013-08-19 19:11:00,-999.0,-99.9,29.93,North,-999,-999.0,-999.0,-999,-99.99,,,0.02,weatherlink.com 1.10,2013-08-19 23:11:00,
2013-08-19 19:26:00,-999.0,-99.9,29.93,North,-999,-999.0,-999.0,-999,-99.99,,,0.02,weatherlink.com 1.10,2013-08-19 23:26:00,
2013-08-19 19:41:00,-999.0,-99.9,29.93,North,-999,-999.0,-999.0,-999,-99.99,,,0.02,weatherlink.com 1.10,2013-08-19 23:41:00,
2013-08-19 19:56:00,-999.0,-99.9,29.93,North,-999,-999.0,-999.0,-999,-99.99,,,0.02,weatherlink.com 1.10,2013-08-19 23:56:00,
2013-08-19 20:11:00,-999.0,-99.9,29.94,North,-999,-999.0,-999.0,-999,-99.99,,,0.02,weatherlink.com 1.10,2013-08-20 00:11:00,
2013-08-19 20:26:00,-999.0,-99.9,29.94,North,-999,-999.0,-999.0,-999,-99.99,,,0.02,weatherlink.com 1.10,2013-08-20 00:26:00,
2013-08-19 20:41:00,-999.0,-99.9,29.94,North,-999,-999.0,-999.0,-999,-99.99,,,0.02,weatherlink.com 1.10,2013-08-20 00:41:00,
2013-08-19 20:56:00,-999.0,-99.9,29.94,North,-999,-999.0,-999.0,-999,-99.99,,,0.02,weatherlink.com 1.10,2013-08-20 00:56:00,
2013-08-19 21:11:00,-999.0,-99.9,29.95,North,-999,-999.0,-999.0,-999,-99.99,,,0.02,weatherlink.com 1.10,2013-08-20 01:11:00,
2013-08-19 21:26:00,-999.0,-99.9,29.95,North,-999,-999.0,-999.0,-999,-99.99,,,0.02,weatherlink.com 1.10,2013-08-20 01:26:00,
2013-08-19 21:41:00,-999.0,-99.9,29.95,North,-999,-999.0,-999.0,-999,-99.99,,,0.02,weatherlink.com 1.10,2013-08-20 01:41:00,
2013-08-19 21:56:00,-999.0,-99.9,29.96,North,-999,-999.0,-999.0,-999,-99.99,,,0.02,weatherlink.com 1.10,2013-08-20 01:56:00,
2013-08-19 22:11:00,-999.0,-99.9,29.97,North,-999,-999.0,-999.0,-999,-99.99,,,0.02,weatherlink.com 1.10,2013-08-20 02:11:00,
2013-08-19 22:26:00,-999.0,-99.9,29.97,North,-999,-999.0,-999.0,-999,-99.99,,,0.02,weatherlink.com 1.10,2013-08-20 02:26:00,
2013-08-19 22:41:00,-999.0,-99.9,29.97,North,-999,-999.0,-999.0,-999,-99.99,,,0.02,weatherlink.com 1.10,2013-08-20 02:41:00,
2013-08-19 22:56:00,-999.0,-99.9,29.97,North,-999,-999.0,-999.0,-999,-99.99,,,0.02,weatherlink.com 1.10,2013-08-20 02:56:00,
2013-08-19 23:11:00,-999.0,-99.9,29.97,North,-999,-999.0,-999.0,-999,-99.99,,,0.02,weatherlink.com 1.10,2013-08-20 03:11:00,
2013-08-19 23:26:00,-999.0,-99.9,29.98,North,-999,-999.0,-999.0,-999,-99.99,,,0.02,weatherlink.com 1.10,2013-08-20 03:26:00,
2013-08-19 23:41:00,-999.0,-99.9,29.98,North,-999,-999.0,-999.0,-999,-99.99,,,0.00,weatherlink.com 1.10,2013-08-20 03:41:00,
2013-08-19 23:56:00,-999.0,-99.9,29.97,North,-999,-999.0,-999.0,-999,-99.99,,,0.00,weatherlink.com 1.10,2013-08-20 03:56:00,